GFSCGP_700_spd_009.txt.gz
Wind_Speed
43 46 60 55 51 45 42 34 35 45 38 33 37 36 36 31 33 29 31 26 18 22 26 29 30 20 18 26 29 27 29 29 28 23 23 23 19 22 24 21 18 14 12 13
45 62 52 51 48 42 45 39 43 45 39 32 36 37 32 26 28 31 22 21 20 20 22 27 30 24 19 17 25 28 29 27 23 21 23 20 16 20 22 20 13 11 13 13
59 59 49 48 44 43 45 44 46 45 36 31 32 40 30 23 24 15 15 17 23 25 28 28 28 18 13 17 21 26 25 23 21 21 21 16 14 19 20 19 12 10 8 13
59 54 21 51 46 45 45 46 43 42 35 25 3 9 24 26 26 20 21 20 18 22 23 28 11 13 14 16 20 23 22 19 20 21 17 13 13 16 17 13 16 10 8 6
57 47 59 29 41 47 53 38 38 36 32 32 39 19 26 24 29 23 23 28 24 26 21 7 7 12 15 15 19 19 17 18 19 18 13 10 12 15 15 15 15 10 6 4
48 45 43 61 31 33 33 32 30 27 31 18 42 14 30 30 18 16 16 11 12 18 11 8 10 12 14 17 17 15 15 17 16 12 10 9 11 13 13 14 19 9 3 2
29 43 32 39 46 41 31 25 5 6 8 7 23 15 32 24 24 21 17 11 11 11 7 9 9 10 11 12 13 12 14 14 12 8 7 8 10 10 13 16 13 8 1 8
31 22 49 41 40 40 48 41 15 6 4 5 19 13 33 13 12 25 11 16 13 8 8 5 6 9 11 12 9 12 11 10 7 5 6 7 7 10 14 9 8 7 8 10
31 32 9 48 37 33 33 49 38 12 9 1 6 25 28 27 24 17 18 14 12 6 3 6 7 10 8 7 12 9 9 6 4 3 3 5 5 9 10 8 8 8 8 10
9 19 32 22 30 44 37 21 35 29 4 3 7 15 21 18 19 7 15 14 12 5 2 7 9 8 7 9 7 6 5 3 2 2 2 3 5 10 8 9 10 8 8 10
37 13 2 33 38 46 43 34 19 28 20 6 1 12 29 22 20 19 15 14 8 1 4 6 8 7 8 7 5 5 3 2 1 1 2 2 4 6 9 7 5 6 8 11
36 24 33 30 12 24 45 50 42 24 18 20 17 29 16 6 11 10 18 12 6 3 6 7 8 7 6 8 4 3 2 1 1 2 3 3 3 6 7 5 7 8 10 11
10 29 21 30 30 23 33 49 52 44 17 24 8 15 20 18 18 21 21 13 7 7 8 9 7 7 8 8 4 1 1 2 2 4 4 4 6 6 10 9 11 12 13 13
7 21 41 29 25 34 30 31 46 43 33 35 37 33 26 19 14 16 23 15 9 5 8 9 9 9 9 9 5 1 2 3 3 6 4 5 7 9 9 13 16 17 17 16
15 12 28 46 44 21 21 30 37 52 48 36 45 35 32 16 17 19 23 16 13 6 9 12 10 11 10 10 6 3 3 5 5 7 6 8 8 11 11 16 19 18 19 19
20 12 18 32 40 47 39 16 31 39 45 42 37 32 29 16 26 23 23 14 10 7 6 12 12 12 11 10 8 6 5 6 7 9 7 10 11 15 16 14 14 16 16 14
23 16 21 22 35 30 34 53 30 26 40 43 40 37 27 23 28 25 23 16 11 11 8 11 13 10 13 12 9 8 6 6 8 10 9 12 13 15 15 13 10 11 12 14
27 27 19 13 14 10 37 40 38 31 26 37 42 37 35 27 25 26 30 21 17 16 11 11 15 13 17 15 12 10 8 6 8 10 11 15 15 17 17 15 14 14 13 13
21 21 8 6 17 6 17 13 26 36 28 29 38 42 36 27 29 24 25 22 20 14 12 12 15 11 17 16 13 11 10 9 8 9 11 13 16 15 16 15 13 12 10 10
7 20 19 1 5 7 13 26 19 27 34 27 38 45 41 31 35 33 28 23 24 21 15 15 18 15 14 16 15 13 11 10 9 9 10 11 13 15 14 13 13 11 10 10
19 6 23 19 7 3 18 21 25 25 20 19 40 45 39 36 30 23 24 25 21 23 20 18 15 15 14 12 11 14 13 11 11 9 9 10 12 12 13 13 12 11 10 10
9 5 6 9 6 3 9 7 22 18 22 25 36 40 41 39 28 26 26 28 25 29 26 20 17 18 18 16 13 15 15 14 12 12 10 8 10 11 12 11 12 12 11 12
5 7 3 3 6 8 16 15 15 13 25 22 34 42 43 37 32 29 30 28 27 24 28 22 19 17 18 18 16 15 18 17 14 13 14 12 11 10 10 10 11 11 10 10
11 14 11 3 12 6 9 12 11 12 13 23 26 31 35 40 33 33 34 30 28 26 32 27 23 21 16 18 19 16 17 15 15 14 14 16 14 13 11 10 11 12 12 10
15 18 16 16 3 11 6 7 12 12 12 14 29 28 37 40 33 35 32 36 30 27 31 31 23 19 20 22 23 21 19 16 15 16 15 17 19 17 15 13 11 10 11 12
14 11 11 17 15 10 1 4 8 11 14 19 25 30 36 40 35 31 30 31 32 29 30 32 24 19 18 28 25 23 20 16 13 12 14 15 20 21 19 16 14 12 11 11

GFSCGP_700_spd_015.txt.gz
Wind_Speed
52 45 65 64 56 45 39 32 39 35 36 36 47 45 43 47 47 42 42 26 19 18 19 19 15 20 22 24 25 27 27 29 32 30 26 24 27 25 26 26 25 25 22 21
44 64 66 56 52 55 50 39 35 29 37 32 32 43 46 45 46 44 38 22 17 16 16 18 21 20 20 24 26 28 24 22 29 28 24 25 25 24 26 24 23 22 22 21
62 71 54 50 52 51 49 46 37 34 27 26 27 41 35 43 44 31 27 19 15 8 11 14 17 23 24 28 28 23 17 20 24 22 23 24 21 24 24 22 22 22 19 19
50 54 29 51 56 39 43 44 39 31 26 30 17 26 27 35 40 35 30 22 16 15 18 22 21 21 22 26 19 15 14 17 19 20 23 20 22 23 22 22 22 20 20 17
46 30 44 36 42 44 44 26 29 29 30 28 26 21 28 24 37 27 20 22 20 21 25 24 16 18 16 14 11 10 11 13 16 20 19 19 21 19 20 22 22 21 19 10
31 22 29 54 35 32 20 17 16 13 16 18 23 18 23 34 30 19 14 18 16 15 11 7 11 13 11 11 10 9 9 12 17 17 17 19 16 16 19 19 19 13 11 5
25 27 26 29 31 26 25 22 9 8 8 11 23 20 38 28 15 7 12 10 12 6 4 9 9 10 7 7 7 7 9 14 14 15 15 13 13 15 15 14 13 11 4 4
23 16 31 26 32 34 36 34 15 9 6 8 7 13 24 11 15 9 5 4 8 10 8 10 9 9 7 8 8 8 11 13 13 12 11 10 12 10 9 10 8 5 1 5
20 27 25 27 31 29 35 39 24 6 1 5 7 11 18 16 13 13 6 6 9 11 12 10 8 8 9 9 7 8 12 11 10 9 8 9 9 6 6 7 6 4 4 5
12 15 30 37 30 33 29 34 20 19 10 8 6 7 13 5 15 9 6 4 11 12 14 9 8 9 11 8 5 10 9 8 9 7 7 7 5 3 6 5 4 3 6 8
26 8 19 31 37 39 29 38 20 20 10 6 3 8 13 6 12 10 3 2 5 12 9 7 8 10 10 5 7 8 7 8 7 5 6 5 4 5 6 2 1 4 7 10
18 15 10 38 23 30 36 35 34 21 12 16 7 7 7 14 15 8 5 6 12 11 7 9 7 8 4 6 7 7 7 7 5 4 4 3 2 4 2 3 5 7 7 11
12 13 13 14 16 28 38 32 33 20 12 24 13 5 17 7 14 11 7 7 13 6 6 5 6 6 4 6 8 7 6 5 4 4 3 2 2 3 3 5 7 9 10 11
11 15 13 12 19 16 36 34 31 25 18 16 32 18 14 10 9 5 5 15 14 6 5 3 6 5 5 7 9 7 5 4 4 4 5 4 4 6 7 9 8 10 11 10
2 7 16 23 12 11 15 32 34 35 27 21 15 33 25 15 10 5 9 20 18 8 4 5 6 5 5 7 9 7 4 6 5 6 6 6 8 10 11 12 12 12 11 10
11 2 6 25 17 11 10 13 20 38 38 36 25 20 23 19 16 8 8 25 20 11 7 5 7 7 5 7 8 6 4 7 8 8 8 8 11 12 10 12 13 12 11 12
9 9 0 12 15 12 16 19 12 16 32 32 38 36 26 27 20 10 5 25 17 15 7 5 3 3 4 8 9 6 5 7 9 10 10 10 14 13 12 12 11 9 11 9
4 4 1 3 11 11 13 16 20 16 13 20 34 22 25 35 27 21 10 23 15 16 11 6 4 4 5 10 12 8 7 9 10 12 11 10 13 11 8 7 8 11 9 9
11 5 2 4 10 4 13 17 21 21 21 26 19 24 31 21 25 18 15 24 13 12 13 7 3 4 5 9 12 10 8 10 11 13 12 10 10 11 11 10 9 10 8 8
10 7 7 5 6 7 4 7 26 30 17 23 27 26 24 27 25 21 21 23 21 17 14 13 8 7 9 10 12 12 9 11 12 15 15 12 11 11 9 8 8 8 7 8
4 7 19 9 2 1 2 9 21 18 11 16 27 28 27 28 28 24 24 26 22 20 20 18 14 6 6 9 14 14 12 12 13 15 17 15 12 11 10 7 7 7 7 9
4 4 7 8 4 4 2 12 14 10 15 16 22 27 29 28 28 27 24 27 27 24 19 21 18 10 8 10 16 16 14 14 13 14 15 17 15 12 10 9 7 7 8 8
2 5 4 5 6 11 14 16 13 7 5 19 21 24 28 27 28 30 27 25 24 22 20 23 22 14 8 10 12 18 18 15 15 14 14 14 15 15 13 11 9 8 9 10
8 7 7 6 9 12 9 11 7 5 6 10 19 24 26 26 27 28 24 24 23 28 23 23 27 20 12 13 11 19 19 15 15 16 14 14 14 14 14 14 13 12 11 10
8 7 5 10 7 16 7 7 10 6 6 9 15 21 26 28 26 26 25 26 25 25 26 24 29 25 18 14 15 17 21 19 16 15 17 16 15 15 14 14 14 15 14 13
8 5 7 1 8 6 8 8 10 9 7 11 15 20 22 25 26 28 27 28 29 25 24 25 32 32 23 18 17 18 19 20 19 18 16 17 17 16 16 15 16 17 18 17

GFSCGP_700_spd_021.txt.gz
Wind_Speed
34 34 48 62 56 52 44 39 42 46 40 34 41 47 42 37 35 35 36 37 39 39 33 31 28 28 26 28 29 23 23 24 29 33 34 29 26 27 30 31 32 31 31 31
37 52 70 40 44 42 46 44 48 42 35 33 40 41 40 40 39 40 39 40 39 38 34 28 24 28 26 28 24 24 25 25 27 30 28 25 23 26 27 30 32 31 31 27
47 64 38 46 43 43 48 48 44 42 33 31 34 42 45 41 39 40 40 40 38 37 33 27 20 27 24 24 24 21 22 26 27 27 24 19 19 23 25 27 30 32 23 24
39 48 44 43 48 49 50 42 37 34 31 35 30 35 42 36 36 36 34 32 31 30 27 24 23 23 18 18 22 23 24 26 25 20 16 14 17 20 24 24 24 24 24 23
48 40 47 49 56 45 58 35 35 34 32 34 37 34 36 29 34 31 29 29 30 32 27 21 28 24 20 20 22 23 20 20 14 13 12 13 16 22 22 24 22 18 20 17
42 37 34 54 47 37 40 36 33 30 32 28 38 33 41 39 33 32 27 25 22 21 19 21 28 21 21 20 19 15 15 13 13 12 11 15 17 19 20 17 17 17 16 14
41 39 39 31 44 46 37 39 23 22 23 23 25 30 41 28 25 24 19 23 14 12 23 27 22 21 15 13 12 11 13 13 11 11 13 16 17 15 14 13 14 14 10 7
35 39 43 44 39 55 47 46 30 29 13 19 31 26 24 16 11 10 20 12 15 15 21 19 17 15 13 11 10 11 12 11 11 12 14 14 11 12 10 10 12 12 6 3
21 39 39 46 37 35 56 49 58 34 27 19 24 23 22 22 20 13 10 19 15 16 18 18 16 14 11 9 9 11 10 10 11 12 11 9 8 8 9 11 12 7 3 3
20 31 41 37 43 38 47 51 37 42 25 19 17 15 12 4 10 12 13 17 18 16 18 17 16 13 10 10 9 9 10 9 9 9 8 7 7 7 9 11 7 4 1 4
18 11 28 46 49 45 48 44 49 39 34 14 12 18 12 11 8 16 14 16 19 18 23 19 16 11 9 8 9 9 8 7 7 6 6 5 5 6 8 5 4 2 3 6
17 14 24 37 41 43 47 44 49 34 33 32 18 4 4 12 11 16 14 12 16 20 20 17 13 9 7 9 8 7 6 6 4 4 4 3 3 3 4 3 3 3 5 7
12 20 22 8 22 44 46 49 41 45 32 28 13 8 8 16 13 14 10 14 20 21 19 16 12 8 9 8 6 6 5 4 2 3 3 2 1 3 4 3 3 4 6 7
11 20 28 9 19 38 44 49 43 44 33 30 28 13 14 14 13 13 13 16 21 21 15 14 11 9 8 5 6 6 3 2 2 3 2 2 1 4 2 3 5 5 6 7
7 29 32 18 17 18 40 46 40 46 34 26 30 17 15 19 15 11 14 18 19 18 16 12 11 9 7 5 7 5 1 1 2 4 6 2 2 1 4 4 6 6 7 7
11 20 30 19 21 15 30 39 36 41 34 26 17 24 17 17 11 11 9 14 17 17 17 12 10 8 6 4 7 5 2 1 3 5 5 4 5 6 5 7 7 5 5 5
16 9 13 11 22 20 22 36 42 34 37 26 18 20 23 12 9 8 8 6 17 16 17 12 8 6 5 5 7 5 2 2 5 6 5 8 6 8 8 9 8 8 5 4
16 10 10 6 17 10 21 23 32 31 32 27 18 18 15 8 9 6 6 6 10 16 16 16 15 10 5 6 8 6 2 3 6 7 7 9 10 9 8 8 6 5 6 4
12 9 6 5 14 20 11 16 19 30 22 15 14 18 11 10 12 13 17 7 16 16 18 15 14 9 8 5 6 6 3 5 8 8 9 11 9 8 4 6 7 7 6 2
10 9 5 13 8 5 6 5 14 14 13 2 9 10 13 16 9 17 16 11 19 22 19 17 14 9 8 7 8 7 4 6 9 9 11 12 11 7 7 6 5 5 4 5
9 8 12 14 13 8 3 1 18 16 6 4 9 16 25 13 15 16 15 13 20 27 19 20 15 8 8 7 10 9 6 6 9 10 11 12 11 10 9 8 7 6 6 7
6 3 8 9 6 5 9 4 8 8 6 2 3 6 14 15 17 21 16 14 16 24 26 24 21 13 10 7 10 11 8 7 9 10 10 12 8 9 9 7 7 8 8 9
1 2 1 1 6 12 11 14 15 14 4 4 3 4 7 8 11 14 21 18 15 17 26 24 24 18 12 9 8 12 12 9 9 10 11 10 7 8 7 7 7 8 8 9
4 1 4 4 4 13 7 7 9 8 7 4 5 3 4 5 3 6 16 19 18 17 17 23 23 23 15 11 10 12 14 12 10 9 10 11 10 8 7 7 7 7 7 8
9 11 6 3 4 9 1 3 1 4 7 2 4 2 3 2 2 4 8 14 17 18 18 17 24 26 19 13 12 13 16 16 13 11 9 9 10 10 9 9 9 8 8 10
14 13 13 7 5 5 9 5 3 6 7 6 2 2 4 3 4 5 10 16 18 20 19 16 23 27 23 18 15 12 13 18 17 15 13 11 10 10 10 11 11 11 10 10

GFSCGP_700_spd_024.txt.gz
Wind_Speed
29 30 45 70 53 48 43 50 49 46 41 39 40 44 49 42 39 41 39 39 40 37 34 35 39 41 30 37 35 28 26 29 32 31 31 32 36 35 30 28 28 30 31 32
28 50 67 37 43 46 46 45 47 44 36 36 38 41 44 43 40 38 36 38 35 38 39 35 33 33 36 33 32 29 30 29 28 30 30 32 31 29 22 23 26 28 29 29
35 59 35 40 44 40 47 49 46 46 35 36 35 42 43 42 40 40 38 38 41 44 41 42 37 32 36 34 28 28 26 25 25 28 28 27 28 22 19 20 24 27 27 24
34 34 42 41 46 44 47 42 38 37 35 34 31 31 46 40 37 35 34 33 35 35 33 31 28 31 31 29 24 17 17 20 21 22 22 21 15 14 17 20 24 26 26 24
50 33 35 44 53 40 54 34 35 35 37 35 36 30 52 29 29 26 27 31 31 28 28 27 23 30 30 27 22 17 19 20 16 15 14 12 11 15 18 20 22 19 20 20
40 34 35 41 40 40 34 37 36 36 35 25 45 36 51 38 32 31 30 29 25 25 22 21 31 32 27 25 22 20 17 14 11 9 10 10 12 16 18 20 17 17 16 16
31 34 36 35 35 40 40 36 25 23 22 23 33 35 47 36 29 29 26 23 18 14 18 23 22 26 26 22 19 15 12 9 9 10 9 11 11 14 17 17 15 13 13 9
21 20 35 38 43 37 48 45 27 24 15 22 38 35 43 34 27 22 15 15 11 12 17 21 24 25 24 17 13 9 8 9 9 9 11 12 12 15 13 9 11 10 9 5
14 20 22 34 37 39 38 50 45 36 33 24 27 35 39 26 25 18 11 12 13 16 19 24 23 20 16 12 9 7 8 9 9 11 11 10 11 12 7 7 9 7 4 5
15 25 28 25 35 42 43 39 45 39 23 21 27 28 18 12 21 15 14 16 20 18 17 17 16 14 11 10 8 8 9 8 9 9 9 10 9 6 5 6 4 4 3 3
18 21 40 25 30 45 42 43 53 36 38 16 14 19 17 13 8 14 16 20 20 15 15 15 14 11 9 8 8 8 8 7 7 7 8 8 5 2 3 2 2 0 1 3
14 15 30 31 24 38 43 40 38 30 33 36 26 26 8 11 11 14 18 23 22 17 17 17 12 10 9 9 8 8 7 5 5 7 7 4 1 2 2 3 1 3 3 3
9 11 16 27 26 29 44 46 42 40 29 32 23 24 11 10 13 16 21 21 16 17 18 17 13 10 9 9 7 6 6 3 4 4 2 2 1 1 2 2 1 4 5 4
17 17 22 17 12 9 20 45 47 43 43 33 35 11 12 19 19 16 16 15 15 22 20 16 13 12 11 8 6 6 5 3 2 2 3 1 2 1 3 2 4 6 7 6
12 19 19 29 28 21 22 23 45 46 45 38 33 14 21 20 19 18 16 18 22 23 19 15 14 11 10 8 7 5 5 2 3 5 3 1 2 1 2 2 7 6 8 6
14 12 22 19 20 27 27 28 27 47 39 44 37 20 18 24 19 17 19 23 23 19 19 15 13 12 11 7 6 5 4 4 4 6 1 1 2 5 4 6 8 7 6 6
19 13 23 16 15 19 22 30 27 46 41 41 30 25 27 21 18 17 19 19 20 17 19 13 15 14 13 6 5 5 3 4 5 4 3 5 4 8 7 8 8 8 7 5
18 15 14 2 3 5 16 19 23 44 39 36 15 22 22 26 20 19 22 25 18 13 16 14 15 15 13 8 7 6 4 5 5 2 2 8 9 9 8 8 7 8 7 6
14 12 7 3 8 24 2 7 4 27 21 13 11 19 21 22 20 20 21 25 26 23 16 14 14 14 12 8 7 6 4 7 7 8 6 7 8 8 7 7 7 6 4 2
11 10 9 1 3 5 8 6 4 7 23 3 8 10 17 22 13 16 20 17 22 21 19 16 15 15 11 8 9 7 5 9 9 8 5 6 5 6 6 6 6 4 2 4
4 7 6 7 3 11 13 14 2 2 9 10 11 13 15 14 10 14 15 14 23 23 21 18 16 12 8 7 9 8 7 11 11 8 10 9 6 6 7 6 5 4 4 6
7 5 1 4 5 6 6 13 19 11 9 12 10 6 15 14 13 12 14 15 27 27 24 17 18 12 9 7 8 9 8 11 14 9 13 6 5 5 7 6 7 8 10 13
8 8 7 7 5 12 16 13 22 20 19 14 8 5 7 11 17 21 15 15 25 31 27 17 20 16 12 8 7 10 9 10 14 12 13 4 6 5 7 7 8 7 9 11
8 11 9 7 5 12 9 9 14 15 21 15 11 9 9 10 8 13 15 16 15 29 31 24 22 21 14 11 8 9 11 10 12 12 11 4 5 5 7 6 7 8 7 7
15 16 13 9 1 4 4 6 3 2 7 12 10 9 5 6 6 6 10 13 12 15 17 28 22 25 18 13 11 8 11 12 12 11 10 7 6 3 5 6 6 7 7 8
16 11 11 9 8 3 4 8 8 7 5 7 6 8 7 4 4 6 11 18 22 22 18 25 27 25 21 18 14 11 8 14 13 11 11 10 7 5 6 4 4 4 6 8

GFSCGP_700_spd_030.txt.gz
Wind_Speed
38 39 54 61 53 44 21 30 40 32 28 33 49 55 57 49 49 47 41 42 39 41 38 40 36 34 35 32 32 33 25 32 29 33 29 30 28 29 32 34 34 30 33 32
22 49 52 49 32 43 46 44 36 25 19 22 27 40 39 39 43 42 41 41 40 41 37 31 29 34 32 31 30 35 32 29 28 30 28 29 29 31 31 31 34 33 24 21
24 22 34 39 32 34 35 40 43 31 27 30 27 41 43 47 47 45 45 43 37 40 38 33 30 28 30 33 29 30 33 30 27 28 29 30 33 32 31 31 29 18 16 16
28 33 30 24 26 33 36 36 24 27 31 35 32 34 52 53 53 49 48 45 45 46 39 38 31 31 31 32 29 25 24 27 28 24 29 26 26 26 23 21 16 16 16 18
33 5 14 25 27 23 34 31 23 25 28 32 33 21 69 33 38 43 42 44 44 38 28 23 26 28 31 26 26 21 19 19 19 22 20 22 22 20 18 13 14 15 15 17
29 25 22 20 22 21 14 22 25 28 28 17 33 29 51 40 45 42 36 31 28 30 28 25 26 30 29 23 22 19 18 18 20 20 21 19 19 14 12 13 14 13 13 16
17 24 26 24 24 21 21 16 7 9 10 16 21 24 50 2 5 15 19 17 16 18 19 25 21 20 24 24 22 20 19 18 19 17 16 15 11 11 14 12 12 11 13 15
10 6 12 10 12 20 22 21 13 7 5 9 31 18 27 42 43 38 33 28 22 19 20 24 21 16 18 15 16 18 18 17 15 14 13 11 11 14 12 10 12 12 12 15
3 10 12 10 15 10 18 28 26 20 30 4 19 39 45 35 26 28 31 28 22 21 17 13 13 12 14 10 12 15 16 13 12 11 10 12 13 11 10 11 11 11 11 11
1 9 17 15 14 18 17 15 14 20 8 6 9 13 26 19 24 19 16 20 22 19 15 13 11 9 16 14 13 15 13 11 11 10 11 11 11 9 10 10 10 10 7 9
13 7 17 19 14 22 19 17 17 15 11 10 3 11 20 26 22 25 18 22 23 23 17 13 10 14 16 15 14 13 10 10 9 9 9 9 8 9 8 9 6 6 7 6
11 11 16 24 21 21 21 19 14 5 13 15 23 34 20 17 17 18 22 26 25 22 15 13 11 13 15 16 13 11 10 9 8 8 9 8 9 8 7 4 4 6 8 6
5 5 9 16 5 11 12 18 16 17 20 30 9 18 33 26 15 8 22 23 26 20 17 14 14 16 17 14 11 9 9 8 8 8 7 6 6 6 4 4 5 7 8 5
11 12 14 13 16 16 13 16 11 12 17 27 36 29 34 21 9 14 22 23 18 18 18 14 17 18 15 11 9 9 9 9 8 6 7 7 7 4 4 4 5 9 7 7
11 18 18 20 20 18 20 20 19 17 19 14 24 37 38 30 22 23 28 26 24 20 19 16 21 18 12 11 10 10 10 7 5 8 7 6 5 4 5 5 6 10 9 9
21 19 14 28 19 24 23 21 20 20 20 20 27 40 28 26 27 24 33 34 26 22 18 21 20 14 11 10 10 10 8 5 6 8 5 2 3 4 4 5 8 11 9 10
26 25 15 18 22 5 8 14 18 20 18 12 28 39 25 25 24 24 40 36 27 23 25 22 15 12 12 10 11 10 7 7 8 8 6 4 3 4 4 7 8 10 9 9
26 22 19 19 23 4 2 9 15 16 16 16 22 31 24 19 20 24 41 37 25 26 23 18 15 14 13 12 12 9 8 9 8 8 6 6 7 5 6 7 8 8 8 8
18 20 13 5 6 4 4 3 7 13 16 15 17 21 20 20 27 27 35 27 23 25 21 15 12 12 11 11 10 7 9 9 8 11 9 7 8 7 7 8 8 9 8 9
15 19 20 16 5 2 5 6 9 13 17 19 14 23 17 21 27 29 33 33 26 25 22 16 12 10 9 9 8 6 8 9 10 13 11 7 6 7 7 6 7 7 6 8
6 16 19 21 9 6 13 16 15 14 9 13 15 21 17 27 28 28 24 31 28 27 23 14 9 9 8 7 7 6 7 10 13 13 10 8 9 7 5 5 4 4 6 7
8 7 3 9 2 6 17 19 9 9 12 18 19 13 23 19 23 28 35 29 30 24 21 17 9 10 9 6 7 6 7 11 14 15 11 8 8 7 5 6 6 4 2 8
9 12 4 7 6 8 13 13 15 24 22 26 28 20 18 25 20 16 25 28 28 28 24 17 11 11 10 7 7 7 6 8 14 16 14 9 6 6 6 6 6 8 11 11
11 17 15 6 15 13 14 17 22 21 27 31 27 23 25 25 19 21 22 34 27 28 25 20 16 11 11 9 7 8 6 7 11 15 14 10 8 6 6 6 6 5 5 6
14 12 11 12 14 11 13 21 13 15 24 32 30 25 25 24 19 22 22 28 29 25 22 21 20 15 10 7 7 5 7 6 9 12 12 12 9 7 6 6 6 5 6 8
11 12 12 7 9 6 8 8 6 10 29 21 26 12 18 20 18 19 19 21 26 29 28 23 19 18 13 8 5 7 5 6 8 11 11 10 9 9 8 6 5 3 7 12

GFSCGP_700_spd_033.txt.gz
Wind_Speed
32 38 50 53 52 39 25 22 25 25 16 22 36 53 51 47 49 53 55 55 55 52 43 38 29 25 27 31 34 31 33 30 31 31 32 28 28 26 25 23 23 25 24 25
19 46 44 39 32 36 41 31 23 23 21 17 27 38 39 36 38 43 46 46 45 44 37 31 28 26 27 28 29 27 28 30 33 27 30 30 30 26 27 26 26 21 26 25
17 17 36 37 32 29 25 25 35 30 24 24 27 41 42 44 43 43 44 43 42 40 38 32 29 29 29 26 24 24 27 27 25 31 30 27 26 27 28 27 22 20 25 23
21 25 21 16 29 37 34 26 23 20 21 25 32 27 47 51 52 50 49 46 44 40 38 36 33 33 34 30 26 25 24 24 23 28 31 27 25 26 24 25 22 18 17 18
34 7 10 28 22 21 26 22 32 19 30 27 24 15 73 19 38 45 44 44 41 38 39 40 36 27 23 24 24 27 22 23 21 21 23 22 22 20 23 20 17 13 16 19
30 24 16 15 15 17 12 11 16 20 23 13 29 25 60 38 48 44 37 33 27 23 17 17 23 26 22 24 25 23 21 21 19 18 20 19 20 19 16 14 12 15 18 18
9 24 24 20 15 13 16 13 3 4 7 12 15 24 58 6 5 11 12 6 8 9 11 15 18 27 23 19 22 22 18 19 18 16 17 17 16 14 14 14 15 17 16 15
1 5 19 13 19 19 18 21 11 6 5 6 26 21 30 31 43 35 31 25 13 16 9 11 16 20 20 19 16 21 19 20 17 15 16 13 14 14 14 15 15 15 13 14
5 5 8 11 11 10 11 19 24 16 24 6 21 37 47 14 14 23 22 15 20 17 14 14 14 11 15 11 10 13 15 16 15 14 12 13 13 14 13 12 13 11 11 13
4 3 7 9 11 13 14 11 15 16 5 5 8 22 29 12 35 25 17 14 13 10 14 13 10 10 10 13 12 12 12 14 13 12 11 13 12 11 10 11 10 10 10 12
6 7 7 10 12 11 12 19 15 13 23 4 3 10 18 16 24 20 17 20 18 14 15 13 10 10 11 13 13 12 13 13 11 11 12 11 10 11 10 10 9 10 10 10
4 5 9 18 17 17 18 15 16 17 13 32 13 14 11 15 12 10 18 18 16 13 14 15 10 10 14 15 13 13 12 11 11 11 10 9 10 9 9 8 9 9 10 7
9 5 7 11 4 4 10 22 26 24 21 25 8 12 18 7 14 15 18 7 11 14 16 15 10 11 13 14 15 13 12 11 10 10 8 9 9 8 8 8 8 8 8 6
14 10 9 7 15 16 24 13 21 22 19 22 42 32 40 22 21 18 17 17 15 14 17 14 11 13 15 16 13 12 11 10 9 9 9 10 10 10 9 7 7 8 7 7
14 14 15 20 21 19 20 22 25 23 25 18 30 34 50 41 25 18 16 16 18 23 18 14 12 16 17 15 14 13 11 9 9 9 10 11 9 7 6 6 7 8 7 8
18 20 16 20 24 19 24 26 25 36 31 30 27 38 38 38 27 20 19 18 19 27 20 15 13 18 16 14 12 11 10 8 8 11 11 8 6 5 6 7 8 8 8 9
23 18 10 16 16 18 24 29 34 36 32 25 23 32 36 36 23 21 17 17 20 31 21 15 16 17 14 13 11 10 9 8 9 10 10 6 3 3 6 7 7 8 7 8
25 18 11 16 20 6 11 13 28 30 27 22 21 27 31 29 29 19 16 15 18 29 20 15 19 17 16 13 13 12 9 10 10 10 9 6 4 2 5 8 7 6 7 7
12 17 14 7 9 18 10 5 8 13 24 18 19 30 23 25 19 16 19 19 26 26 19 18 16 14 13 12 13 10 10 11 9 11 10 7 5 3 4 6 6 6 7 7
12 17 24 10 4 4 5 3 8 13 18 14 25 21 24 22 16 18 24 27 29 24 21 19 16 14 13 15 13 10 9 10 9 13 10 8 5 6 5 5 5 6 6 6
2 11 26 24 9 10 9 13 9 12 10 14 17 20 23 28 22 22 22 29 32 30 24 21 14 9 13 13 11 9 10 10 13 14 10 8 8 8 6 4 4 5 7 8
6 7 4 10 8 5 11 8 12 12 9 12 23 17 17 21 22 26 27 43 34 30 27 21 17 13 11 12 10 9 10 11 15 15 13 10 10 9 7 6 4 0 6 11
9 17 8 3 7 6 10 16 11 9 14 12 28 22 22 19 19 29 25 37 28 29 25 20 15 13 11 10 10 8 9 11 13 15 14 11 10 9 7 7 7 8 6 6
16 17 14 10 16 17 17 11 15 23 14 21 30 23 21 22 22 21 29 40 24 29 27 20 18 15 12 11 10 9 8 10 13 13 14 11 9 8 6 5 5 4 6 6
17 15 20 11 16 12 20 18 11 15 15 34 37 21 21 21 23 26 28 30 28 24 28 23 18 15 12 11 10 9 8 9 12 12 11 11 9 7 5 4 5 4 3 5
15 16 18 16 16 13 14 15 12 22 29 31 28 26 25 25 21 17 35 41 38 20 29 27 22 17 14 11 10 8 8 8 10 10 10 9 7 5 4 3 3 3 3 8

GFSCGP_700_spd_036.txt.gz
Wind_Speed
19 29 46 44 45 41 17 24 21 26 22 17 30 42 45 42 45 47 47 47 47 50 52 54 53 50 43 30 26 26 28 29 28 28 27 29 30 30 26 20 23 24 22 21
13 32 35 34 32 37 37 24 19 17 21 21 31 42 45 45 47 49 49 48 47 45 41 39 38 35 30 27 25 21 21 25 26 26 27 27 25 28 23 24 26 25 22 21
20 22 18 25 27 22 27 31 30 26 18 22 25 42 48 49 50 50 50 48 46 42 39 33 30 28 27 28 25 25 23 22 23 25 26 23 26 26 24 26 24 22 20 19
26 23 22 18 19 31 30 21 14 9 15 25 21 17 40 45 50 47 46 43 43 43 39 33 29 26 27 27 25 24 26 24 23 24 25 20 22 24 26 26 26 20 17 21
33 32 13 19 21 15 29 28 29 20 13 20 28 17 54 30 42 45 42 40 38 31 32 32 30 30 31 25 20 18 24 23 22 23 21 18 23 25 25 23 17 17 19 25
33 33 29 17 12 16 14 13 17 18 20 14 26 20 53 46 51 44 35 22 23 25 20 15 15 14 20 25 20 19 20 20 21 22 19 19 20 20 19 18 18 17 18 18
14 21 27 32 20 14 14 12 4 3 5 9 20 20 49 2 7 1 7 11 2 3 12 17 19 18 17 23 21 21 22 21 18 17 17 18 17 18 17 16 14 14 16 17
11 7 18 23 25 18 17 20 7 6 5 4 21 20 26 22 28 23 14 13 12 5 10 13 13 15 19 24 22 19 18 19 16 16 16 16 17 15 14 14 15 17 16 16
10 2 7 9 17 19 18 22 28 7 6 3 11 31 43 18 16 16 16 9 11 13 11 16 19 19 19 18 18 16 15 17 16 14 16 16 13 12 13 15 15 15 14 13
4 8 4 2 8 13 10 14 16 11 4 5 8 17 17 2 17 22 20 19 11 12 10 19 16 12 11 14 14 12 13 13 13 14 15 13 13 15 14 12 14 13 11 10
7 8 8 8 8 11 10 17 11 17 19 3 3 5 1 1 11 14 11 11 17 13 13 15 13 13 13 13 14 11 10 11 12 13 13 13 14 12 11 13 11 9 9 7
7 7 9 16 16 15 13 15 15 17 10 24 14 12 6 9 6 2 6 8 10 10 14 15 12 13 12 13 13 11 9 10 12 13 12 12 10 10 11 10 9 8 7 4
11 4 7 4 2 2 10 17 20 21 18 18 6 13 17 5 9 3 11 13 8 11 19 14 13 11 10 13 12 11 10 11 12 11 10 9 10 9 9 9 8 6 5 6
17 13 12 9 9 11 17 15 15 14 17 26 35 27 37 27 23 9 14 16 15 16 17 14 13 9 10 13 13 12 11 10 10 10 8 10 8 8 9 9 8 6 6 6
17 19 17 19 20 22 20 23 25 27 28 22 23 28 41 46 42 38 26 17 13 12 18 18 12 10 11 14 15 12 10 10 10 9 9 8 8 9 9 9 7 6 7 7
14 14 13 24 26 24 24 24 30 33 38 40 33 36 34 38 34 32 25 16 10 7 20 17 13 11 14 15 12 10 10 10 9 8 8 8 8 9 8 7 5 6 8 6
21 19 15 16 14 18 20 26 28 39 41 42 39 30 30 34 34 35 19 12 10 9 21 19 13 14 15 12 9 9 10 9 8 7 8 9 8 6 5 5 6 8 8 6
27 23 17 14 14 5 13 15 19 30 39 41 39 26 27 25 25 27 29 15 8 14 20 19 14 18 17 13 11 11 10 9 7 7 10 8 5 3 2 4 5 8 8 6
13 22 10 7 8 22 27 15 13 10 16 31 24 26 24 21 20 24 22 14 6 15 19 15 15 17 16 13 10 10 9 8 7 8 11 8 5 4 5 6 7 8 9 7
13 17 22 11 6 5 9 21 5 9 13 17 21 27 22 19 23 15 18 13 3 15 20 17 20 18 14 12 12 9 8 8 9 12 10 8 6 6 7 7 7 7 7 7
7 10 29 26 12 12 18 19 5 9 6 18 22 25 22 26 16 16 17 14 7 18 19 22 17 14 11 13 12 9 9 10 14 12 10 9 6 7 7 6 6 5 5 5
10 12 4 11 7 6 13 3 5 6 12 14 19 20 25 24 17 21 17 11 10 24 25 23 17 15 14 14 12 10 11 12 15 12 12 11 9 8 8 6 4 3 5 7
11 16 14 9 8 20 13 10 5 3 16 19 21 21 19 22 22 23 19 15 19 28 27 23 19 15 15 15 12 11 13 13 15 16 13 12 10 9 7 6 7 6 4 8
21 19 17 20 19 28 15 12 6 6 10 19 19 19 24 27 24 19 16 17 32 30 28 25 20 16 13 15 14 12 11 14 15 16 15 12 10 8 6 4 3 5 7 7
21 22 22 22 28 26 27 19 20 10 14 16 17 20 19 19 18 19 20 23 30 36 28 23 20 17 13 13 13 12 12 12 16 17 14 12 9 7 5 3 2 2 3 3
19 20 25 25 26 19 22 23 19 13 19 35 28 20 16 19 15 20 22 29 46 29 29 24 24 21 16 12 11 12 11 11 15 15 13 11 8 6 4 2 1 2 1 2